Live-Position
3D-Globus wird geladen...
Über OneWeb SL0583
Group: 3 satellites
Beschreibung wird geladen...
Nächste Überflüge
Passes for default location (London). Set your location on the main map for personalized predictions.
Höhenverlauf
Loading altitude history...
No altitude history available
Zweizeiliger Elementsatz
1 54650U 22166J 26121.28691116 -.00000030 00000-0 -10460-3 0 9992
2 54650 87.9220 253.3340 0002014 102.7532 257.3828 13.21828317165336
Epoch: 1. Mai 2026 •
Age: 5 hours
Aktueller Status
Höhe 1197.9 km
Geschwindigkeit 7.25 km/s
Subsatellitenpunkt -48.48°S,
149.86°W
Startdatum 8. Dez. 2022
Alter 3.3 years
Typ internet
Startgruppe
Unknown Vehicle •
OneWeb Launch 15 •
40 satellites
OneWeb SL0527
54642
OneWeb SL0528 54643
OneWeb SL0539 54644
OneWeb SL0540 54645
OneWeb SL0542 54646
OneWeb SL0545 54647
OneWeb SL0580 54648
OneWeb SL0582 54649
OneWeb SL0584 54651
OneWeb SL0585 54652
OneWeb SL0586 54653
OneWeb SL0587 54654
OneWeb SL0589 54655
OneWeb SL0590 54656
OneWeb SL0591 54657
OneWeb SL0592 54658
OneWeb SL0593 54659
OneWeb SL0594 54660
OneWeb SL0595 54661
OneWeb SL0596 54662
...and 19 more
Technische Details
Klassifizierung Payload
Masse 148.00 kg
Trockenmasse 140.00 kg
Gesamtmasse 148.00 kg
Länge 1.30 m
Durchmesser 1.00 m
Spannweite 5.00 m
Form Trapezoid+2 pan
Hersteller ONEWUS
Bus-Typ ARROW
Phasenstatus In Orbit
Besitzer/Staat ONEWEBN/UK
Most Searched
Loading...